Terminal Aerodrome Forecast
Issued by NWS Sioux Falls, SD

Home | Current Version | Previous Version | Text Only | Print | Product List | Glossary On
Versions: 1 2 3 4 5 6 7 8 9 10 11 12 13 14 15 16 17 18 19
386
FTUS43 KFSD 201608 AAB
TAFHON
TAF AMD
KHON 201608Z 2016/2112 34012G18KT P6SM OVC035
      TEMPO 2016/2017 6SM -SN
     FM201900 31011KT P6SM SCT025 BKN045
     FM202300 29007KT P6SM FEW200
     FM210600 26006KT P6SM SKC=

USA.gov is the U.S. government's official web portal to all federal, state and local government web resources and services.